Погода в Новожилове

Россия / Санкт-Петербург и Ленинградская область     60°30′40″N   30°09′35″E
темп.,
°C
ветер,
м/с
пор.,
м/с
влажн.,
%
обл.,
%
осадки,
мм/ч
давл.,
гПа
погр.,
м
10 мая, пн
пн1000:00+3ююв3871100 0.0 1019157
03:00+5ю31269100 0.0 1020317
06:00+6ю41270100 0.0 1019735
09:00+6ю61489100 1.5 1019719
12:00+8ю51383100 0.2 1019519
15:00+15ююз41167100 0.2 10191102
18:00+17ююз31065100 0.0 10191294
21:00+15ю51373100 0.0 1020521
11 мая, вт
вт1100:00+13ююз61677100 0.0 1021584
03:00+12ююз51583100 0.0 1022485
06:00+11ююз4138645 0.0 1023401
09:00+15ююз5106785 0.0 1023517
12:00+19ююз58514 0.0 10241070
15:00+21ююз57430 0.0 10241338
18:00+21ю36480 0.0 10241265
21:00+15ю39720 0.0 1024204
12 мая, ср
ср1200:00+12ю210800 0.0 1025187
03:00+11ю26820 0.0 1026113
06:00+11ю27815 0.0 1026150
09:00+17ю35555 0.0 1025401
12:00+20ююв3438100 0.0 10251066
15:00+22ю343953 0.0 10231383
18:00+22юв23445 0.0 10221277
21:00+14вюв22703 0.0 102230
13 мая, чт
чт1300:00+13в22700 0.0 102238
03:00+12вюв22791 0.0 102123
06:00+12вюв28860 0.0 1020196
09:00+18юв37669 0.0 1019607
12:00+21юв585233 0.0 10191646
15:00+19вюв475980 0.1 10181261
18:00+19в485937 0.1 1016666
21:00+15юв117697 0.1 101711
14 мая, пт
пт1400:00+14ююз2575100 0.0 1017125
03:00+11ю1185100 0.0 101710
06:00+11юв12828 0.0 101764
09:00+17юв245354 0.0 1017822
12:00+19вюв354531 0.0 10161728
15:00+20в4544100 0.0 10151563
18:00+18в365665 0.0 1014441
21:00+12всв27756 0.0 1012150